www.pogodaiklimat.ru

Погода и климат >> Архив погоды >> Китай >> Цзяньси >> Цзиань


ПОГОДА в Цзиане

  • Прогноз погоды в Цзиане
  • Монитор погоды в Цзиане

АРХИВ ПОГОДЫ в Цзиане

Время (UTC), дата Ветер
(напр.,м/с)
 
Видим.   Явления Облачность Т
(С)
Тd
(С)
f
(%)
Тe
(С)
Тes
(С)
Комфортность P
(гПа)
Po
(гПа)
Тmin
(С)
Tmax
(С)
R
(мм)
R24
(мм)
S
(см)
09 15.08 СВ 1 3600 м в посл. час дождь 10/10 300 м
[]
+23.6 +23.3 98 +32 +32 очень
душно
993.6 973.3
12 15.08 штиль 0 3300 м в посл. час дождь 10/10 300 м
[]
+23.1 +23.1 100 +32 +32 очень
душно
993.0 972.7 3
18 15.08 штиль 0 3900 м слаб. дождь ?/? +21.9 +21.9 100 +29 +29 очень
душно
991.5 971.2 +26.1 16
21 15.08 штиль 0 3600 м в посл. час дождь н/о +22.0 +22.0 100 +29 +29 очень
душно
991.6 971.3
00 16.08 Ю 1 н/о дымка 9/9 1000 м
[]
+23.5 +23.5 100 +32 +33 очень
душно
991.8 971.6 1
03 16.08 ЮЗ 5 27 км 9/9 600 м
[]
+27.2 +23.2 79 +37 +38 очень
душно
991.0 971.0
06 16.08 ЮЗ 2 29 км в посл. час дождь 8/8 600 м
[]
+28.8 +23.9 75 +40 +42 очень
душно
990.8 970.9 +21.9 0.0
09 16.08 В 2
{25}
8000 м слаб. дождь 9/9 1000 м
[]
+23.6 +21.9 90 +30 +30 очень
душно
992.5 972.2
12 16.08 С 1
{25}
9000 м в посл. час дождь {ливн. осадки} 8/8 1000 м
[]
+22.1 +22.1 100 +29 +29 очень
душно
993.7 968.1 25
18 16.08 С 1 3100 м слаб. дождь ?/? +19.0 +19.0 100 +22 +22 комфорт 995.5 974.9 +29.5 17
21 16.08 штиль 0 3100 м дымка н/о +18.6 +18.6 100 +20 +20 997.1 976.4
00 17.08 З 3 15 км 9/9 1000 м
[]
+20.6 +18.7 89 +25 +26 комфорт 998.2 977.6 0.8
03 17.08 З 3 27 км 8/8 1000 м
[]
+23.4 +17.8 71 +29 +32 душно 998.8 978.4
06 17.08 ЮЗ 3 29 км 6/6 1000 м
[]
+26.4 +17.5 58 +31 +35 душно 997.6 977.4 +18.3
09 17.08 С 1 8000 м слаб. дождь 9/9 1000 м
[]
+22.5 +20.0 86 +29 +29 очень
душно
998.6 978.2
12 17.08 В 1 3500 м слаб. дождь 10/10 1000 м
[]
+18.3 +18.1 99 +20 +20 1002.4 981.6 10
18 17.08 С 1 3800 м дымка ?/? +16.1 +16.1 100 +17 +17 1004.2 983.2 +27.0 5
21 17.08 В 1 3500 м дымка н/о +17.1 +17.1 100 +18 +18 1005.6 984.6
00 18.08 СЗ 1 10 км 9/9 1000 м
[]
+19.3 +17.8 91 +22 +23 комфорт 1007.3 986.4 5
03 18.08 Ю 1 28 км 9/9 1000 м
[]
+22.4 +17.5 74 +27 +29 душно 1008.0 987.4
06 18.08 ЮЗ 2 30 км {дождь} 4/4 600 м
[]
+25.9 +17.5 60 +30 +37 душно 1006.7 986.3 +16.1 0.0
09 18.08 СЗ 1 26 км 3/3 600 м
[]
+25.0 +18.9 69 +30 +31 душно 1006.4 986.0
12 18.08 СВ 1 17 км ясно +19.8 +18.6 93 +24 +24 комфорт 1008.1 987.3
18 18.08 С 3 12 км ?/? +17.2 +17.2 100 +17 +17 1010.5 989.4 +26.4
21 18.08 С 2 11 км н/о +16.8 +16.8 100 +17 +17 1011.6 990.5
00 19.08 В 1 14 км 9/9 1000 м
[]
+19.9 +18.6 92 +24 +25 комфорт 1012.6 991.7
03 19.08 СЗ 1 22 км 8/8 600 м
[]
+25.2 +19.1 69 +30 +34 душно 1012.0 991.5
06 19.08 З 1 29 км 3/3 600 м
[]
+26.7 +19.1 63 +32 +42 очень
душно
1010.8 990.4 +16.8
09 19.08 СЗ 2 26 км 4/4 600 м
[]
+26.9 +20.0 66 +33 +34 очень
душно
1010.7 990.3
12 19.08 С 4 19 км ясно +20.9 +18.7 87 +25 +25 комфорт 1012.3 991.5
18 19.08 С 2 16 км ?/? +16.3 +16.1 99 +16 +16 1013.6 992.4 +28.2
21 19.08 С 3 16 км н/о +15.7 +15.5 99 +15 +15 1013.2 992.0
00 20.08 Ю 1 15 км 8/8 600 м
[]
+19.4 +17.4 88 +23 +24 комфорт 1013.6 992.6
03 20.08 С 1 21 км 10/10 600 м
[]
+24.3 +18.7 71 +29 +29 душно 1012.2 991.6
06 20.08 В 1 26 км 9/9 600 м
[]
+26.5 +18.1 60 +31 +32 душно 1010.5 990.1 +15.5
09 20.08 С 1 19 км 9/9 1000 м
[]
+24.6 +21.3 82 +31 +31 очень
душно
1009.3 988.8
12 20.08 С 2 14 км 10/10 1000 м
[]
+21.6 +20.4 93 +27 +27 душно 1009.4 988.7
18 20.08 З 1 5000 м слаб. дождь ?/? +20.2 +20.2 100 +25 +25 комфорт 1008.1 987.3 +26.7 0.4
21 20.08 Ю 1 н/о слаб. дождь н/о +19.9 +19.9 100 +24 +24 комфорт 1008.0 987.2
00 21.08 штиль 0 3400 м дымка 10/10
[]
+20.4 +20.4 100 +24 +24 комфорт 1008.0 987.2 2
03 21.08 ЮЗ 3 14 км 8/8 1000 м
[]
+25.9 +19.5 68 +31 +34 очень
душно
1006.6 986.2
06 21.08 СЗ 3 19 км слаб. дождь 9/9 1000 м
[]
+25.2 +18.4 66 +30 +31 душно 1005.8 979.9 +19.8 0.0
09 21.08 З 1 19 км {дождь} 8/8 1000 м
[]
+26.0 +19.6 68 +32 +32 очень
душно
1005.7 985.3
12 21.08 С 2 7000 м в посл. час дождь 8/8 1000 м
[]
+21.2 +20.9 98 +27 +27 душно 1007.2 986.5 0.1
18 21.08 С 3 11 км ?/? +18.4 +18.1 98 +19 +19 1007.6 986.7 +27.7 0.2
21 21.08 С 3 15 км н/о +17.6 +17.0 96 +18 +18 1007.8 986.8
00 22.08 С 2 13 км 9/9 1000 м
[]
+20.7 +18.5 87 +25 +26 комфорт 1008.0 987.2 0.2
03 22.08 Ю 3 17 км 8/8 1000 м
[]
+24.7 +17.9 66 +29 +32 душно 1006.5 986.0
06 22.08 ЮЗ 4 20 км 6/6 600 м
[]
+25.9 +15.9 54 +29 +32 душно 1005.1 984.7 +17.4

 

Местоположение метеостанции Цзиань (Цзяньси, Китай): широта 41.10 долгота 126.15 высота над уровнем моря 179 м.

В архиве по умолчанию представлена погода в Цзиане за последнюю неделю. Архивные данные за месяц целиком и за предыдущие месяцы, начиная с января 2011 года, Вы можете получить, выбрав интересующий диапазон дат из раскрывающегося списка и нажав кнопку "Ввод!".


*Определитесь, кто Вы:
робот инопланетянин человек

Внимание! Время в таблицах - всемирное. Для получения местного времени необходимо прибавить поправку, которая равна 8 ч.

Смотрите также архив погоды в соседних городах и на ближайших метеорологических станциях:

Погода в Канге (КНДР) (40 км)
Погода в Линьцзяне (Гирин, Китай) (94 км)
Погода в Чунгане (КНДР) (97 км)
Погода в Хыйчхоне (КНДР) (104 км)
Погода в Куаньдяне (Ляонин, Китай) (123 км)
Погода в Джангджине (КНДР) (123 км)
Погода на Плотине Сапунг (КНДР) (126 км)
Погода в Кусонге (КНДР) (146 км)
Погода в Цинъюане (Гуандун, Китай) (149 км)
Погода в Анджу (КНДР) (170 км)

Пояснения к столбцам:

Ветер - указаны скорость ветра в м/с - средняя за 10 мин, порывы в срок и между сроками (в фигурных скобках) и направление, откуда дует ветер: С - северный, СВ - северо-восточный, В - восточный, ЮВ - юго-восточный, Ю - южный, ЮЗ - юго-западный, З - западный, СЗ - северо-западный.
Видимость - горизонтальная дальность видимости в метрах или километрах. При видимости от 1 до 10 км при отсутствии осадков обычно наблюдается дымка, при ухудшении видимости до 1 км и менее - туман. В сухую погоду видимость может ухудшаться дымом, пылью или мглою.
Явления - указаны атмосферные явления, наблюдавшиеся в срок или в последний час перед сроком; фигурными скобками обозначены явления, наблюдавшиеся между сроками (за 1-3 часа до срока); квадратными скобками обозначены град или гололедные отложения с указанием их диаметра в мм.
Облачность - указаны через наклонную черту общая и нижняя облачность в баллах и высота нижней границы облаков в метрах; квадратными скобками обозначены формы облаков: Ci - перистые, Cs - перисто-слоистые, Cc - перисто-кучевые, Ac - высококучевые, As - высокослоистые, Sc - слоисто-кучевые, Ns - слоисто-дождевые, Cu - кучевые, Cb - кучево-дождевые. Подробнее классификацию облаков см. в Атласе облаков (PDF).
T - Температура воздуха - температура, измеренная на высоте 2 м над землей.
Td - Температура точки росы - температура, при понижении до которой содержащийся в воздухе водяной пар достигнет насыщения.
f - Относительная влажность воздуха - влажноcть воздуха, измеренная на высоте 2 м над землей.
Te - Эффективная температура - температура, которую ощущает одетый по сезону человек в тени. Характеристика душности погоды. При расчете учитывается влияние влажности воздуха и скорости ветра на теплоощущения человека.
Tes - Эффективная температура на солнце - температура, которую ощущает человек, с поправкой на солнечный нагрев. Характеристика знойности погоды. Зависит от высоты солнца над горизонтом, облачности и скорости ветра. Ночью, в пасмурную погоду, а также при ветре 12 м/с и более поправка равна нулю.
P - Атмосферное давление - приведенное к уровню моря атмосферное давление.
Po - Атмосферное давление - измеренное на уровне метеостанции атмосферное давление.
Tmin - Минимальная температура - минимум температуры воздуха на высоте 2 м над землей.
Tmax - Максимальная температура - максимум температуры воздуха на высоте 2 м над землей.
R - Количество осадков - Количество выпавших осадков за период времени, мм. При наведении курсора мыши на число - период времени, за который выпало указанное количество осадков.
R24 - Количество осадков - Количество выпавших осадков за 24 часа, мм.
S - Снежный покров - Высота снежного покрова, см. При наведении курсора мыши на число - состояние снежного покрова и степень покрытия местности в баллах.